#timestamp,LO_Frequency,Hit 
1498420815.3,286047036.0,N
1498420835.2,286047037.4,N
1498420855.9,286047037.3,N
1498420875.7,286047033.9,N
1498420895.5,286047034.9,N
1498420915.4,286047040.4,N
1498420935.2,286047038.6,N
1498420955.0,286047042.7,N
1498420955.9,286047042.7,N
1498420975.8,286047040.3,N
1498420995.6,286047042.8,N
1498421015.4,286047039.9,N
1498421035.3,286047040.6,N
1498421055.1,286047037.6,N
1498421056.0,286047037.6,N
1498421075.8,286047036.9,N
1498421095.7,286047042.5,N
1498421115.5,286047041.9,N
1498421135.3,286047043.4,N
1498421155.1,286047039.7,N
1498421175.9,286047044.9,N
1498421195.7,286047046.1,N
1498421215.5,286047047.3,N
1498421235.4,286047046.5,N
1498421255.2,286047048.0,N
1498421275.0,286047049.6,N
1498421275.9,286047049.6,N
1498421295.8,286047049.1,N
1498421315.6,286047045.5,N
1498421335.4,286047044.1,N
1498421355.3,286047047.4,N
1498421375.1,286047048.2,N
1498421376.0,286047048.2,N
1498421395.8,286047049.2,N
1498421415.7,286047049.2,N
1498421435.5,286047046.2,N
1498421455.3,286047047.9,N
1498421475.1,286047047.7,N
1498421495.9,286047045.3,N
1498421515.7,286047041.5,N
1498421535.5,286047047.6,N
1498421555.4,286047045.2,N
1498421575.2,286047045.9,N
1498421595.0,286047046.0,N
1498421595.9,286047046.0,N
1498421615.8,286047049.1,N
1498421635.6,286047048.4,N
1498421655.4,286047043.5,N
1498421675.3,286047043.6,N
1498421695.1,286047044.7,N
1498421696.0,286047044.7,N
1498421715.8,286047049.2,N
1498421735.7,286047050.1,N
1498421755.5,286047053.3,N
1498421775.3,286047054.1,N
1498421795.1,286047051.6,N
1498421815.9,286047051.4,N
1498421835.7,286047055.0,N
1498421855.5,286047057.2,N
1498421875.4,286047054.1,N
1498421895.2,286047052.8,N
1498421915.0,286047054.5,N
1498421915.9,286047054.5,N
1498421935.8,286047056.0,N
1498421955.6,286047054.2,N
1498421975.4,286047054.8,N
1498421995.3,286047058.1,N
1498422015.1,286047053.3,N
1498422016.0,286047053.3,N
1498422035.8,286047052.2,N
1498422055.7,286047051.5,N
1498422075.5,286047052.7,N
1498422095.3,286047056.7,N
1498422115.2,286047054.9,N
1498422135.9,286047054.5,N
1498422155.7,286047054.9,N
1498422175.5,286047060.1,N
1498422195.4,286047059.4,N
1498422215.2,286047061.4,N
1498422235.0,286047058.9,N
1498422235.9,286047058.9,N
1498422255.8,286047054.9,N
1498422275.6,286047054.6,N
1498422295.4,286047050.5,N
1498422315.3,286047053.0,N
1498422335.1,286047055.7,N
1498422336.0,286047055.7,N
1498422355.8,286047050.9,N
1498422375.7,286047051.4,N
1498422395.5,286047057.1,N
1498422415.3,286047059.5,N
1498422435.2,286047059.2,N
1498422455.9,286047058.4,N
1498422475.7,286047058.5,N
1498422495.5,286047057.2,N
1498422515.4,286047056.2,N
1498422535.2,286047059.3,N
1498422555.0,286047059.5,N
1498422555.9,286047059.5,N
1498422575.8,286047060.0,N
1498422595.6,286047061.2,N
1498422615.4,286047057.1,N
1498422635.3,286047058.8,N
1498422655.1,286047058.3,N
1498422656.0,286047058.3,N
1498422675.8,286047054.3,N
1498422695.7,286047058.0,N
1498422715.5,286047059.4,N
1498422735.3,286047065.1,N
1498422755.2,286047062.4,N
1498422775.9,286047059.3,N
1498422795.7,286047061.4,N
1498422815.5,286047063.0,N
1498422835.4,286047065.2,N
1498422855.2,286047063.4,N
1498422875.0,286047062.4,N
1498422875.9,286047062.4,N
1498422895.8,286047063.1,N
1498422915.6,286047063.1,N
1498422935.4,286047064.9,N
1498422955.3,286047059.6,N
1498422975.1,286047060.4,N
1498422976.0,286047060.4,N
1498422995.8,286047061.8,N
1498423015.7,286047061.1,N
1498423035.5,286047064.8,N
1498423055.3,286047066.3,N
1498423075.1,286047064.5,N
1498423095.9,286047064.6,N
1498423115.7,286047061.1,N
1498423135.5,286047060.6,N
1498423155.4,286047062.1,N
1498423175.2,286047060.9,N
1498423195.0,286047065.1,N
1498423195.9,286047065.1,N
1498423215.8,286047061.5,N
1498423235.6,286047059.1,N
1498423255.4,286047063.3,N
1498423275.3,286047064.8,N
1498423295.1,286047060.0,N
1498423296.0,286047060.0,N
1498423315.8,286047059.4,N
1498423335.7,286047059.2,N
1498423355.5,286047060.8,N
1498423375.3,286047061.1,N
1498423395.2,286047062.2,N
1498423415.9,286047066.2,N
1498423435.7,286047066.2,N
1498423455.5,286047061.1,N
1498423475.4,286047060.0,N
1498423495.2,286047059.4,N
1498423515.0,286047062.1,N
1498423515.9,286047062.1,N
1498423535.8,286047066.3,N
1498423555.6,286047064.1,N
1498423575.4,286047068.1,N
1498423595.3,286047071.5,N
1498423615.1,286047071.5,N
1498423616.0,286047071.5,N
1498423635.8,286047067.4,N
1498423655.7,286047063.9,N
1498423675.5,286047062.5,N
1498423695.3,286047064.3,N
1498423715.2,286047065.7,N
1498423735.9,286047064.9,N
1498423755.7,286047060.7,N
1498423775.5,286047064.5,N
1498423795.4,286047064.1,N
1498423815.2,286047062.5,N
1498423835.0,286047063.9,N
1498423835.9,286047063.9,N
1498423855.8,286047068.2,N
1498423875.6,286047068.8,N
1498423895.4,286047068.4,N
1498423915.3,286047063.7,N
1498423935.1,286047062.4,N
1498423936.0,286047062.4,N
1498423955.8,286047059.1,N
1498423975.7,286047059.8,N
1498423995.5,286047064.9,N
1498424015.3,286047065.8,N
1498424035.2,286047069.9,N
1498424055.9,286047068.4,N
1498424075.7,286047064.0,N
1498424095.5,286047068.2,N
1498424115.4,286047069.4,N
1498424135.2,286047066.5,N
1498424155.0,286047064.9,N
1498424155.9,286047064.9,N
1498424175.8,286047068.2,N
1498424195.6,286047065.9,N
1498424215.4,286047066.5,N
1498424235.3,286047066.0,N
1498424255.1,286047069.2,N
1498424256.0,286047069.2,N
1498424275.8,286047072.8,N
1498424295.7,286047073.6,N
1498424315.5,286047073.6,N
1498424335.3,286047071.0,N
1498424355.2,286047070.6,N
1498424375.9,286047070.3,N
1498424395.7,286047073.2,N
